AirNav   Free Bose QuietComfort 20
 
 1525 users online  

9A0 Lumpkin County-Wimpys Airport
Dahlonega, Georgia, USA

GOING TO DAHLONEGA?


FAA INFORMATION EFFECTIVE 05 DECEMBER 2019

Location

FAA Identifier: 9A0
Lat/Long: 34-34-59.3000N 084-01-11.9000W
34-34.988333N 084-01.198333W
34.5831389,-84.0199722
(estimated)
Elevation: 1311 ft. / 400 m (estimated)
Variation: 03W (1985)
From city: 3 miles NW of DAHLONEGA, GA
Time zone: UTC -5 (UTC -4 during Daylight Saving Time)
Zip code: 30533

Airport Operations

Airport use: Open to the public
Activation date: 08/1956
Control tower: no
ARTCC: ATLANTA CENTER
FSS: MACON FLIGHT SERVICE STATION
NOTAMs facility: MCN (NOTAM-D service available)
Attendance: UNATNDD
Wind indicator: yes
Segmented circle: no
Lights: RDO CTL

Airport Communications

CTAF: 122.9
WX AWOS-3 at DZJ (16 nm N): 119.325 (706-745-9271)

Nearby radio navigation aids

VOR radial/distance  VOR name  Freq  Var
HRSr193/22.2HARRIS VORTAC109.8000E
ODFr259/36.3FOOTHILLS VOR/DME113.4000E

 
NDB name  Hdg/Dist  Freq  Var  ID
FLOWERY BRANCH349/23.536503WFKV ..-. -.- ...-
CHERO054/30.541505WDJD -.. .--- -..

Airport Services

Fuel available: 100LL
24 HOUR SELF SERVE WITH CREDIT CARD.
Parking: tiedowns
Airframe service: NONE
Powerplant service: NONE
Bottled oxygen: NONE
Bulk oxygen: NONE

Runway Information

Runway 15/33

Dimensions: 3090 x 50 ft. / 942 x 15 m
Surface: asphalt, in good condition
Weight bearing capacity: 
Single wheel: 12.0
Runway edge lights: non-standard
NSTD LIRL THE LENGTH OF THE RY. NO THLD LIGHTS. LIRL OTS INDEFLY.
RUNWAY 15  RUNWAY 33
Latitude: 34-35.210333N34-34.767167N
Longitude: 084-01.350167W084-01.046000W
Traffic pattern: leftleft
Displaced threshold: 754 ft.695 ft.
Markings: basic, in good conditionbasic, in good condition
Obstructions: 137 ft. trees, 1236 ft. from runway, 225 ft. left of centerline, 8:1 slope to clear
15:1 APCH SLP TO DSPLCD THLD, TREES 450 FT OUT & 150 FT RIGHT.
22 ft. trees, 310 ft. from runway, 50 ft. right of centerline, 5:1 slope to clear
APCH SLOPE 25:1 TO DSPLCD THLD, TREELINE 2,325 FROM DSPLCD THLD.

Airport Ownership and Management from official FAA records

Ownership: Publicly-owned
Owner: LUMPKIN COUNTY AIRPORT AUTHORITY
99 COURTHOUSE HILL, SUITE H
DAHLONEGA, GA 30533
Phone (706) 265-0284
Manager: JIMMY BERRONG
99 COURTHOUSE HILL, SUITE H
DAHLONEGA, GA 30533
Phone (706) 265-0284
AIRPORT ADDRESS: 1682 CAMP WAHSEGA RD

Airport Operational Statistics

Aircraft based on the field: 26
Single engine airplanes: 25
Multi engine airplanes: 1
    
Aircraft operations: avg 107/week *
54% local general aviation
36% transient general aviation
11% military
* for 12-month period ending 31 December 2018

Additional Remarks

ARPT CLSD TO ACFT AT NIGHT, DAYTIME USE ONLY.
DEER & WILDLIFE ON OR INVOF ARPT.
FOR CD CTC ATLANTA ARTCC AT 770-210-7692.

Instrument Procedures

There are no published instrument procedures at 9A0.

Some nearby airports with instrument procedures:

KDZJ - Blairsville Airport (16 nm N)
KGVL - Lee Gilmer Memorial Airport (21 nm SE)
KJZP - Pickens County Airport (23 nm W)
KAJR - Habersham County Airport (23 nm E)
49A - Gilmer County Airport (25 nm W)
 
Loc | Ops | Rwys | IFR | FBO | Links
Com | Nav | Svcs | Stats | Notes
Area around 9A0 (Lumpkin County-Wimpys Airport)
 
Road maps at: MapQuest Bing Google
 
Aerial photo
WARNING: Photo may not be current or correct
Aerial photo of 9A0 (Lumpkin County-Wimpys Airport)
Photo by Jerry Morris
Photo taken 17-Sep-2015
looking south.

Do you have a better or more recent aerial photo of Lumpkin County-Wimpys Airport that you would like to share? If so, please send us your photo.

 
Sectional chart

 
Airport distance calculator
Flying to Lumpkin County-Wimpys Airport? Find the distance to fly.

From to 9A0

Sunrise and sunset
Times for 06-Dec-2019
 Local
(UTC-5)
 Zulu
(UTC)
Morning civil twilight07:0212:02
Sunrise07:3012:30
Sunset17:2422:24
Evening civil twilight17:5222:52

Current date and time
Zulu (UTC)  06-Dec-2019 19:46:45
Local (UTC-5)  06-Dec-2019 14:46:45
 
METAR
KDZJ 
16nm N 
061935Z AUTO 25012G17KT 190V270 10SM SCT090 15/M01 A3013 RMK AO2 T01501012
KGVL 
21nm SE 
061853Z AUTO 30004KT 10SM BKN100 BKN110 13/02 A3016 RMK AO2 SLP209 T01280022
KJZP 
23nm W 
061935Z AUTO 00000KT 10SM -RA OVC065 11/03 A3017 RMK AO2 T01110025
KAJR 
23nm E 
061935Z AUTO 00000KT 7SM BKN080 BKN120 12/00 A3013 RMK AO2 T01210002
K49A 
25nm W 
061935Z AUTO 21009KT 10SM OVC060 13/00 A3016 RMK AO2 T01340000
KCNI 
26nm SW 
061930Z AUTO 00000KT 10SM -RA OVC070 11/05 A3015 RMK AO2
TAF
KPDK 
44nm S 
061722Z 0618/0718 VRB03KT P6SM VCSH SCT060 OVC090 TEMPO 0621/0624 6SM -RA BKN050 OVC080 FM070000 08003KT 6SM -RA SCT035 OVC050 FM070500 06003KT P6SM VCSH BKN025 FM070900 07003KT P6SM FEW025 BKN040
KRYY 
45nm SW 
061722Z 0618/0718 VRB03KT P6SM VCSH SCT060 BKN100 TEMPO 0620/0623 6SM -RA BKN050 OVC080 FM062300 12003KT 6SM -RA SCT035 OVC050 FM070300 06003KT P6SM VCSH BKN025 FM071000 08003KT P6SM FEW025 BKN040
KMGE 
47nm SW 
061400Z 0614/0720 12006KT 9999 BKN100 BKN200 QNH3012INS BECMG 0619/0620 14007KT 9999 -RA SCT020 BKN050 OVC120 QNH3015INS BECMG 0700/0701 09005KT 9999 NSW FEW009 BKN025 OVC040 QNH3014INS BECMG 0705/0706 VRB05KT 9999 SCT005 OVC015 QNH3019INS BECMG 0708/0709 05005KT 9999 SCT015 OVC025 QNH3018INS BECMG 0713/0714 06007KT 9999 SCT020 OVC040 QNH3024INS TX15/0620Z TN06/0713Z
NOTAMs
Click for the latest NOTAMs
NOTAMs are issued by the DoD/FAA and will open in a separate window not controlled by AirNav.

 

 
 

FBO, Fuel Providers, and Aircraft Ground Support

  
 Business Name 
 
 Contact 
 
 Services / Description 
 
Fuel Prices
 
Comments
  
Lumpkin County-Wimpy's Airport 706-864-6894
no information available

If you are affiliated with Lumpkin County-Wimpy's Airport and would like to show here your services, contact info, web link, logo, and more, click here
100LL
SS $4.65 
 Updated 04-Dec-2019
 
   write
SS=Self service
Update Fuel Prices
 

Would you like to see your business listed on this page?

 If your business provides an interesting product or service to pilots, flight crews, aircraft, or users of the Lumpkin County-Wimpys Airport, you should consider listing it here.  To start the listing process, click on the button below
 
Add a business
 

Other Pages about Lumpkin County-Wimpys Airport

Update a link
 
Copyright © AirNav, LLC. All rights reserved. Privacy Policy  Contact